Weather History for PAKW - March, 2014

Change the Weather History Date:

Saturday, March 8, 2014

  Actual Average Record
Temperature  
Mean Temperature 46 °F -  
Max Temperature 50 °F 39 °F 50 °F (2014)
Min Temperature 41 °F 28 °F 12 °F (2003)
Degree Days  
Heating Degree Days 19    
Moisture  
Dew Point 39 °F    
Average Humidity 81    
Maximum Humidity 97    
Minimum Humidity 61    
Precipitation  
Precipitation 0.37 in - - ()
Sea Level Pressure  
Sea Level Pressure 29.27 in    
Wind  
Wind Speed 6 mph (South)    
Max Wind Speed 12 mph    
Max Gust Speed 20 mph    
Visibility 9 miles    
Events Rain    
Averages and records for this station are not official NWS values.
T = Trace of Precipitation, MM = Missing Value Source: NWS Daily Summary

Daily Weather History Graph

Daily Weather History Graph

Search for Another Location

Airport or City:

Trip Planner

Search our weather history database for the weather conditions in past years. The results will help you decide how hot, cold, wet, or windy it might be!

Date:

Astronomy

Mar. 08, 2014 Rise Set
Actual Time 6:24 AM AKST 5:42 PM AKST
Civil Twilight 5:48 AM AKST 6:18 PM AKST
Nautical Twilight 5:05 AM AKST 7:01 PM AKST
Astronomical Twilight 4:22 AM AKST 7:45 PM AKST
Moon 10:06 AM AKST (3/8) 1:51 AM AKST (3/8)
Length of Visible Light 12h 30m
Length of Day
11h 17m
First Quarter, 53% of the Moon is Illuminated
Mar 8
First Quarter
Mar 16
Full
Mar 23
Last Quarter
Mar 30
New
Apr 7
First Quarter

Hourly Weather History & Observations

Time (AKST) Temp. Windchill Dew Point Humidity Pressure Visibility Wind Dir Wind Speed Gust Speed Precip Events Conditions
12:01 AM 44.1 °F 40.1 °F 41.0 °F 89% 29.43 in 8.0 mi South 6.9 mph - 0.00 in Rain Light Rain
12:53 AM 45.0 °F 41.8 °F 39.9 °F 82% 29.43 in 10.0 mi Variable 5.8 mph - 0.00 in   Overcast
1:27 AM 45.0 °F 42.6 °F 39.9 °F 82% 29.42 in 10.0 mi Variable 4.6 mph - N/A   Overcast
1:34 AM 45.0 °F 41.8 °F 39.9 °F 82% 29.42 in 10.0 mi SSE 5.8 mph - N/A   Overcast
1:53 AM 45.0 °F 43.5 °F 39.0 °F 80% 29.42 in 10.0 mi Variable 3.5 mph - N/A   Overcast
3:53 AM 46.0 °F 43.9 °F 37.0 °F 71% 29.39 in 10.0 mi Variable 4.6 mph - N/A   Mostly Cloudy
4:53 AM 45.0 °F 43.5 °F 36.0 °F 71% 29.37 in 10.0 mi Variable 3.5 mph - N/A   Partly Cloudy
5:53 AM 45.0 °F 43.5 °F 37.0 °F 74% 29.36 in 10.0 mi West 3.5 mph - N/A   Overcast
6:53 AM 45.0 °F - 36.0 °F 71% 29.35 in 10.0 mi Calm Calm - N/A   Overcast
7:53 AM 46.0 °F - 37.0 °F 71% 29.34 in 10.0 mi Calm Calm - N/A   Mostly Cloudy
8:53 AM 48.0 °F - 37.0 °F 66% 29.31 in 10.0 mi Variable 4.6 mph - N/A   Partly Cloudy
9:53 AM 50.0 °F - 39.0 °F 66% 29.28 in 10.0 mi Variable 4.6 mph - N/A   Overcast
10:53 AM 48.9 °F - 37.9 °F 66% 29.27 in 10.0 mi Variable 4.6 mph - N/A   Overcast
11:53 AM 50.0 °F - 37.9 °F 63% 29.24 in 10.0 mi SE 10.4 mph 17.3 mph N/A   Overcast
12:53 PM 50.0 °F - 37.0 °F 61% 29.21 in 10.0 mi SE 11.5 mph 19.6 mph N/A   Overcast
1:53 PM 50.0 °F - 37.0 °F 61% 29.18 in 10.0 mi SE 9.2 mph 17.3 mph N/A   Overcast
2:53 PM 48.0 °F - 37.0 °F 66% 29.16 in 10.0 mi North - - N/A   Overcast
3:53 PM 45.0 °F 42.6 °F 39.9 °F 82% 29.15 in 9.0 mi South 4.6 mph - 0.08 in Rain Light Rain
4:09 PM 44.1 °F 42.5 °F 41.0 °F 89% 29.15 in 2.0 mi Variable 3.5 mph - 0.04 in Rain Rain
4:21 PM 44.1 °F 42.5 °F 41.0 °F 89% 29.15 in 5.0 mi Variable 3.5 mph - 0.06 in Rain Light Rain
4:53 PM 43.0 °F 41.3 °F 39.9 °F 89% 29.15 in 8.0 mi Variable 3.5 mph - 0.12 in Rain Rain
5:53 PM 43.0 °F 38.8 °F 37.9 °F 82% 29.14 in 10.0 mi Variable 6.9 mph - 0.07 in Rain Light Rain
6:06 PM 42.1 °F 37.1 °F 39.0 °F 89% 29.14 in 10.0 mi South 8.1 mph - 0.00 in   Overcast
6:53 PM 43.0 °F 39.5 °F 39.9 °F 89% 29.15 in 10.0 mi Variable 5.8 mph - 0.03 in   Overcast
7:53 PM 43.0 °F 39.5 °F 41.0 °F 93% 29.18 in 6.0 mi South 5.8 mph - 0.03 in Rain Light Rain
8:31 PM 43.0 °F 39.5 °F 42.1 °F 97% 29.19 in 5.0 mi SSW 5.8 mph - 0.02 in Rain Light Rain
8:53 PM 43.0 °F 37.7 °F 41.0 °F 93% 29.21 in 9.0 mi SSW 9.2 mph - 0.02 in Rain Light Rain
9:06 PM 43.0 °F 37.7 °F 41.0 °F 93% 29.21 in 10.0 mi SSW 9.2 mph - 0.00 in   Overcast
9:24 PM 43.0 °F 36.8 °F 41.0 °F 93% 29.23 in 6.0 mi SSW 11.5 mph - 0.01 in Rain Light Rain
9:53 PM 42.1 °F 36.6 °F 41.0 °F 96% 29.26 in 3.0 mi SSW 9.2 mph - 0.02 in Rain Light Rain
10:13 PM 42.1 °F 37.1 °F 39.9 °F 92% 29.27 in 10.0 mi SSW 8.1 mph - 0.00 in Rain Light Rain
10:50 PM 42.8 °F 40.1 °F 37.4 °F 81% 29.30 in 10.0 mi Variable 4.6 mph - 0.00 in   Overcast
10:53 PM 42.1 °F 39.2 °F 37.9 °F 85% 29.30 in 10.0 mi Variable 4.6 mph - 0.00 in   Overcast
11:53 PM 41.0 °F 36.4 °F 37.0 °F 86% 29.33 in 10.0 mi Variable 6.9 mph - 0.00 in   Overcast